This is the latest recevied weather packets stored in our database for station/object VK6DUG. If no packets are shown the sender has not sent any weather packets the latest 10 day(s).
| Time | Temp. | Humidity | Pressure | Rain* | Wind** | Luminosity | Snow |
|---|---|---|---|---|---|---|---|
| 1777602024 | 13.89° C | 62% | 1026.5 hPa | 0 mm | - | 219 W/m² | - |
| 1777601421 | 14.44° C | 63% | 1026.4 hPa | 0 mm | - | 368 W/m² | - |
| 1777600819 | 13.89° C | 64% | 1026.4 hPa | 0 mm | - | 386 W/m² | - |
| 1777600217 | 13.89° C | 65% | 1026.5 hPa | 0 mm | - | 272 W/m² | - |
| 1777599635 | 13.89° C | 65% | 1026.5 hPa | 0 mm | - | 210 W/m² | - |
| 1777599032 | 13.89° C | 68% | 1026.5 hPa | 0 mm | - | 353 W/m² | - |
| 1777598430 | 13.33° C | 69% | 1026.4 hPa | 0 mm | - | 331 W/m² | - |
| 1777597828 | 13.33° C | 71% | 1026.5 hPa | 0 mm | - | 248 W/m² | - |
| 1777597225 | 12.78° C | 73% | 1026.4 hPa | 0 mm | - | 200 W/m² | - |
| 1777596623 | 12.78° C | 74% | 1026.3 hPa | 0 mm | - | 129 W/m² | - |
| 1777596021 | 12.78° C | 75% | 1026.1 hPa | 0 mm | - | 116 W/m² | - |
| 1777595419 | 12.22° C | 77% | 1026 hPa | 0 mm | - | 93 W/m² | - |
| 1777594816 | 12.22° C | 77% | 1025.9 hPa | 0 mm | - | 76 W/m² | - |
| 1777594233 | 12.22° C | 78% | 1025.8 hPa | 0 mm | - | 61 W/m² | - |
| 1777593630 | 12.22° C | 78% | 1025.6 hPa | 0 mm | - | 54 W/m² | - |
| 1777593028 | 12.22° C | 78% | 1025.3 hPa | 0 mm | - | 53 W/m² | - |
| 1777592426 | 12.22° C | 78% | 1025.3 hPa | 0 mm | - | 38 W/m² | - |
| 1777591823 | 12.22° C | 78% | 1025 hPa | 0 mm | - | 21 W/m² | - |
| 1777591220 | 12.22° C | 79% | 1024.7 hPa | 0 mm | - | 17 W/m² | - |
| 1777590617 | 12.22° C | 79% | 1024.6 hPa | 0 mm | - | 12 W/m² | - |
| 1777590034 | 12.22° C | 80% | 1024.4 hPa | 0 mm | - | 5 W/m² | - |
| 1777589432 | 12.22° C | 80% | 1024.3 hPa | 0 mm | - | 2 W/m² | - |
| 1777588829 | 12.22° C | 80% | 1024.1 hPa | 0 mm | - | 0 W/m² | - |
| 1777588226 | 12.78° C | 80% | 1024 hPa | 0 mm | - | 0 W/m² | - |
| 1777587624 | 12.78° C | 80% | 1023.9 hPa | 0 mm | - | 0 W/m² | - |
* Rain latest hour (hover to see other rain measurements)
** Current wind speed in m/s (hover to see current wind gust speed)